This is the latest recevied weather packets stored in our database for station/object LW9ERO-3. If no packets are shown the sender has not sent any weather packets the latest 10 day(s).
| Time | Temp. | Humidity | Pressure | Rain* | Wind** | Luminosity | Snow |
|---|---|---|---|---|---|---|---|
| 1787772424 | 18.33° C | 51% | 1005.3 hPa | 0 mm | - | - | - |
| 1787771883 | 18.33° C | 50% | 1005 hPa | 0 mm | - | - | - |
| 1787771343 | 18.89° C | 50% | 1005.1 hPa | 0 mm | - | - | - |
| 1787770803 | 18.33° C | 49% | 1005.2 hPa | 0 mm | - | - | - |
| 1787770444 | 18.33° C | 49% | 1005.5 hPa | 0 mm | - | - | - |
| 1787769904 | 18.89° C | 48% | 1005.5 hPa | 0 mm | - | - | - |
| 1787769364 | 18.33° C | 48% | 1005.2 hPa | 0 mm | - | - | - |
| 1787768823 | 18.33° C | 47% | 1005.5 hPa | 0 mm | - | - | - |
| 1787768283 | 18.33° C | 47% | 1005.6 hPa | 0 mm | - | - | - |
| 1787767743 | 18.89° C | 47% | 1005.9 hPa | 0 mm | - | - | - |
| 1787767203 | 18.89° C | 46% | 1006 hPa | 0 mm | - | - | - |
| 1787766843 | 18.89° C | 45% | 1005.8 hPa | 0 mm | - | - | - |
| 1787766303 | 19.44° C | 44% | 1006 hPa | 0 mm | - | - | - |
| 1787765764 | 19.44° C | 43% | 1006.1 hPa | 0 mm | - | - | - |
| 1787765223 | 19.44° C | 45% | 1006.3 hPa | 0 mm | - | - | - |
| 1787764684 | 19.44° C | 45% | 1006.4 hPa | 0 mm | - | - | - |
| 1787764143 | 18.89° C | 44% | 1006.6 hPa | 0 mm | - | - | - |
| 1787763603 | 18.89° C | 44% | 1006.9 hPa | 0 mm | - | - | - |
| 1787763243 | 18.89° C | 45% | 1007 hPa | 0 mm | - | - | - |
| 1787762703 | 18.33° C | 45% | 1007.2 hPa | 0 mm | - | - | - |
| 1787762164 | 18.33° C | 47% | 1007.5 hPa | 0 mm | - | - | - |
| 1787761623 | 18.33° C | 48% | 1007.5 hPa | 0 mm | - | - | - |
| 1787761084 | 17.78° C | 49% | 1007.7 hPa | 0 mm | - | - | - |
| 1787760543 | 17.78° C | 48% | 1007.4 hPa | 0 mm | - | - | - |
| 1787760004 | 17.78° C | 49% | 1007.8 hPa | 0 mm | - | - | - |
* Rain latest hour (hover to see other rain measurements)
** Current wind speed in m/s (hover to see current wind gust speed)